• In United Kingdom
  • List of Countries
  • For 7 days
  • Water Temperature
  • Satellite Maps
  • Weather Map
  • Weather Widgets
  • user-avatar
    Login

    Hourly Weather Al-Ahmadi

    Today, 26 September, Wednesday

    Time Temperature Precipitation Wind Pressure Humidity
    00:00 +36°C° 0 mm 4 mps 747 mmHg 13%
    01:00 +35°C° 0 mm 4 mps 746 mmHg 13%
    02:00 +35°C° 0 mm 4 mps 746 mmHg 14%
    03:00 +34°C° 0 mm 4 mps 746 mmHg 14%
    04:00 +34°C° 0 mm 4 mps 746 mmHg 14%
    05:00 +34°C° 0 mm 4 mps 746 mmHg 14%
    06:00 +33°C° 0 mm 3 mps 746 mmHg 14%
    07:00 +36°C° 0 mm 3 mps 747 mmHg 12%
    08:00 +38°C° 0 mm 3 mps 747 mmHg 10%
    09:00 +42°C° 0 mm 3 mps 747 mmHg 8%
    10:00 +43°C° 0 mm 3 mps 747 mmHg 8%
    11:00 +44°C° 0 mm 4 mps 747 mmHg 8%
    12:00 +47°C° 0 mm 4 mps 747 mmHg 7%
    13:00 +47°C° 0 mm 4 mps 746 mmHg 7%
    14:00 +47°C° 0 mm 4 mps 746 mmHg 7%
    15:00 +47°C° 0 mm 3 mps 745 mmHg 7%
    16:00 +45°C° 0 mm 3 mps 745 mmHg 8%
    17:00 +43°C° 0 mm 3 mps 745 mmHg 9%
    18:00 +40°C° 0 mm 2 mps 745 mmHg 10%
    19:00 +39°C° 0 mm 2 mps 745 mmHg 11%
    20:00 +38°C° 0 mm 2 mps 746 mmHg 12%
    21:00 +37°C° 0 mm 2 mps 746 mmHg 13%
    22:00 +36°C° 0 mm 2 mps 746 mmHg 14%
    23:00 +36°C° 0 mm 2 mps 746 mmHg 15%

    Tomorrow, 27 September, Thursday

    Time Temperature Precipitation Wind Pressure Humidity
    00:00 +35°C° 0 mm 2 mps 746 mmHg 15%
    01:00 +33°C° 0 mm 1 mps 746 mmHg 17%
    02:00 +33°C° 0 mm 1 mps 746 mmHg 18%
    03:00 +32°C° 0 mm 1 mps 746 mmHg 19%
    04:00 +32°C° 0 mm 1 mps 746 mmHg 19%
    05:00 +32°C° 0 mm 2 mps 746 mmHg 19%
    06:00 +32°C° 0 mm 2 mps 747 mmHg 20%
    07:00 +36°C° 0 mm 2 mps 747 mmHg 16%
    08:00 +39°C° 0 mm 2 mps 748 mmHg 13%
    09:00 +42°C° 0 mm 2 mps 748 mmHg 10%
    10:00 +43°C° 0 mm 2 mps 748 mmHg 9%
    11:00 +44°C° 0 mm 1 mps 748 mmHg 8%
    12:00 +45°C° 0 mm 1 mps 748 mmHg 7%
    13:00 +46°C° 0 mm 2 mps 747 mmHg 7%
    14:00 +47°C° 0 mm 2 mps 747 mmHg 7%
    15:00 +47°C° 0 mm 2 mps 747 mmHg 7%
    16:00 +45°C° 0 mm 3 mps 746 mmHg 9%
    17:00 +43°C° 0 mm 3 mps 746 mmHg 10%
    18:00 +40°C° 0 mm 3 mps 746 mmHg 12%
    19:00 +39°C° 0 mm 3 mps 746 mmHg 13%
    20:00 +38°C° 0 mm 3 mps 747 mmHg 14%
    21:00 +37°C° 0 mm 3 mps 747 mmHg 15%
    22:00 +37°C° 0 mm 3 mps 747 mmHg 14%
    23:00 +37°C° 0 mm 3 mps 747 mmHg 14%

    Day after tomorrow, 28 September, Friday

    Time Temperature Precipitation Wind Pressure Humidity
    00:00 +36°C° 0 mm 3 mps 747 mmHg 13%
    01:00 +36°C° 0 mm 4 mps 747 mmHg 13%
    02:00 +36°C° 0 mm 4 mps 747 mmHg 13%
    03:00 +36°C° 0 mm 4 mps 747 mmHg 13%
    04:00 +36°C° 0 mm 4 mps 747 mmHg 13%
    05:00 +35°C° 0 mm 4 mps 748 mmHg 13%
    06:00 +35°C° 0 mm 4 mps 748 mmHg 12%
    07:00 +37°C° 0 mm 4 mps 748 mmHg 11%
    08:00 +41°C° 0 mm 4 mps 749 mmHg 9%
    09:00 +43°C° 0 mm 4 mps 749 mmHg 7%
    10:00 +44°C° 0 mm 4 mps 749 mmHg 6%
    11:00 +47°C° 0 mm 4 mps 749 mmHg 6%
    12:00 +48°C° 0 mm 5 mps 748 mmHg 5%
    13:00 +48°C° 0 mm 5 mps 748 mmHg 5%
    14:00 +48°C° 0 mm 5 mps 747 mmHg 5%
    15:00 +48°C° 0 mm 5 mps 747 mmHg 4%
    16:00 +45°C° 0 mm 4 mps 747 mmHg 5%
    17:00 +43°C° 0 mm 3 mps 747 mmHg 6%
    18:00 +40°C° 0 mm 2 mps 747 mmHg 7%
    19:00 +39°C° 0 mm 3 mps 747 mmHg 7%
    20:00 +38°C° 0 mm 3 mps 748 mmHg 8%
    21:00 +37°C° 0 mm 4 mps 748 mmHg 8%
    22:00 +37°C° 0 mm 4 mps 748 mmHg 9%
    23:00 +36°C° 0 mm 4 mps 748 mmHg 9%

    29 September, Saturday

    Time Temperature Precipitation Wind Pressure Humidity
    00:00 +36°C° 0 mm 4 mps 748 mmHg 10%
    01:00 +35°C° 0 mm 4 mps 748 mmHg 10%
    02:00 +35°C° 0 mm 4 mps 748 mmHg 10%
    03:00 +34°C° 0 mm 5 mps 748 mmHg 10%
    04:00 +34°C° 0 mm 4 mps 748 mmHg 11%
    05:00 +33°C° 0 mm 4 mps 748 mmHg 12%
    06:00 +33°C° 0 mm 4 mps 749 mmHg 12%
    07:00 +35°C° 0 mm 4 mps 749 mmHg 11%
    08:00 +37°C° 0 mm 3 mps 749 mmHg 9%
    09:00 +40°C° 0 mm 3 mps 750 mmHg 8%
    10:00 +42°C° 0 mm 3 mps 749 mmHg 7%
    11:00 +43°C° 0 mm 3 mps 749 mmHg 6%
    12:00 +45°C° 0 mm 2 mps 749 mmHg 6%
    13:00 +45°C° 0 mm 3 mps 748 mmHg 6%
    14:00 +45°C° 0 mm 3 mps 748 mmHg 6%
    15:00 +45°C° 0 mm 4 mps 747 mmHg 6%
    16:00 +43°C° 0 mm 3 mps 748 mmHg 8%
    17:00 +40°C° 0 mm 3 mps 748 mmHg 10%
    18:00 +37°C° 0 mm 2 mps 748 mmHg 12%
    19:00 +36°C° 0 mm 3 mps 748 mmHg 12%
    20:00 +36°C° 0 mm 3 mps 748 mmHg 12%
    21:00 +35°C° 0 mm 3 mps 749 mmHg 13%
    22:00 +35°C° 0 mm 3 mps 749 mmHg 12%
    23:00 +35°C° 0 mm 3 mps 749 mmHg 12%

    30 September, Sunday

    Time Temperature Precipitation Wind Pressure Humidity
    00:00 +35°C° 0 mm 4 mps 748 mmHg 11%
    01:00 +34°C° 0 mm 4 mps 748 mmHg 12%
    02:00 +34°C° 0 mm 4 mps 748 mmHg 12%
    03:00 +34°C° 0 mm 4 mps 748 mmHg 13%
    04:00 +33°C° 0 mm 4 mps 748 mmHg 13%
    05:00 +33°C° 0 mm 4 mps 749 mmHg 14%
    06:00 +32°C° 0 mm 4 mps 749 mmHg 14%
    07:00 +35°C° 0 mm 4 mps 749 mmHg 13%
    08:00 +37°C° 0 mm 4 mps 750 mmHg 11%
    09:00 +40°C° 0 mm 4 mps 750 mmHg 10%
    10:00 +42°C° 0 mm 4 mps 749 mmHg 9%
    11:00 +43°C° 0 mm 4 mps 749 mmHg 8%
    12:00 +44°C° 0 mm 4 mps 749 mmHg 8%
    13:00 +44°C° 0 mm 4 mps 748 mmHg 7%
    14:00 +45°C° 0 mm 4 mps 748 mmHg 7%
    15:00 +46°C° 0 mm 5 mps 747 mmHg 6%
    16:00 +42°C° 0 mm 4 mps 747 mmHg 8%
    17:00 +39°C° 0 mm 3 mps 747 mmHg 10%
    18:00 +36°C° 0 mm 2 mps 747 mmHg 12%
    19:00 +36°C° 0 mm 2 mps 748 mmHg 13%
    20:00 +35°C° 0 mm 2 mps 748 mmHg 15%
    21:00 +34°C° 0 mm 2 mps 748 mmHg 16%
    22:00 +34°C° 0 mm 3 mps 748 mmHg 15%
    23:00 +33°C° 0 mm 3 mps 748 mmHg 14%

    1 October, Monday

    Time Temperature Precipitation Wind Pressure Humidity
    00:00 +33°C° 0 mm 3 mps 747 mmHg 14%
    01:00 +33°C° 0 mm 3 mps 747 mmHg 15%
    02:00 +33°C° 0 mm 3 mps 747 mmHg 16%
    03:00 +31°C° 0 mm 3 mps 747 mmHg 17%
    04:00 +31°C° 0 mm 2 mps 747 mmHg 18%
    05:00 +31°C° 0 mm 2 mps 748 mmHg 20%
    06:00 +30°C° 0 mm 2 mps 748 mmHg 21%
    07:00 +34°C° 0 mm 2 mps 748 mmHg 19%
    08:00 +36°C° 0 mm 2 mps 748 mmHg 16%
    09:00 +39°C° 0 mm 2 mps 749 mmHg 13%
    10:00 +40°C° 0 mm 2 mps 748 mmHg 12%
    11:00 +41°C° 0 mm 2 mps 748 mmHg 11%
    12:00 +42°C° 0 mm 2 mps 748 mmHg 10%
    13:00 +43°C° 0 mm 2 mps 747 mmHg 10%
    14:00 +44°C° 0 mm 3 mps 747 mmHg 10%
    15:00 +44°C° 0 mm 3 mps 747 mmHg 11%
    16:00 +42°C° 0 mm 3 mps 747 mmHg 14%
    17:00 +40°C° 0 mm 4 mps 747 mmHg 17%
    18:00 +37°C° 0 mm 4 mps 747 mmHg 21%
    19:00 +36°C° 0 mm 4 mps 747 mmHg 22%
    20:00 +36°C° 0 mm 4 mps 748 mmHg 23%
    21:00 +35°C° 0 mm 4 mps 748 mmHg 25%
    22:00 +34°C° 0 mm 4 mps 748 mmHg 24%
    23:00 +34°C° 0 mm 4 mps 748 mmHg 23%
    Show more